DW9580 Weather Reports


time (UTC)temp
C
wind
direction
speed
KPH
gust
KPH
rain 1hr
cm
rain 24hr
cm
rain mn
cm
humidity
%
barometer
mb
20260502214205 15 117 0.0 0.0 0.05 1.88 1.88 80 1012.4
20260502213705 15 117 0.0 0.0 0.05 1.88 1.88 80 1012.4
20260502213206 15 117 0.0 0.0 0.05 1.88 1.88 80 1012.4
20260502212705 15 117 0.0 0.0 0.05 1.88 1.88 80 1012.4
20260502212205 15 117 0.0 0.0 0.05 1.88 1.88 80 1012.5
20260502211206 15 117 0.0 0.0 0.05 1.85 1.85 79 1012.4
20260502210705 15 117 0.0 0.0 0.05 1.85 1.85 79 1012.5
20260502210205 15 117 0.0 0.0 0.05 1.85 1.85 79 1012.5
20260502205705 15 118 0.0 0.0 0.05 1.85 1.85 79 1012.5
20260502205206 15 140 0.0 0.0 0.05 1.85 1.85 79 1012.6
20260502204705 15 133 0.0 0.0 0.05 1.85 1.85 79 1012.6
20260502203705 15 229 0.0 0.0 0.05 1.83 1.83 79 1012.6
20260502202205 14 240 0.0 0.0 0.05 1.83 1.83 79 1012.7
20260502201704 14 240 0.0 0.0 0.05 1.83 1.83 79 1012.7
20260502201206 14 240 0.0 0.0 0.05 1.83 1.83 79 1012.7
20260502200705 14 240 0.0 0.0 0.05 1.83 1.83 80 1012.8
20260502200206 14 240 0.0 0.0 0.05 1.83 1.83 79 1012.9
20260502195705 14 240 0.0 0.0 0.05 1.80 1.80 80 1012.9
20260502195205 14 240 0.0 0.0 0.05 1.80 1.80 80 1012.9
20260502194705 14 240 0.0 0.0 0.05 1.80 1.80 80 1013.0
20260502194205 14 240 0.0 0.0 0.08 1.80 1.80 80 1013.0
20260502193704 14 240 0.0 0.0 0.08 1.80 1.80 80 1013.0
20260502191209 14 240 0.0 0.0 0.08 1.75 1.75 80 1013.5
20260502190705 13 240 0.0 0.0 0.10 1.75 1.75 81 1013.4
20260502190205 13 240 0.0 0.0 0.13 1.75 1.75 81 1013.4
20260502185705 13 240 0.0 0.0 0.10 1.75 1.75 81 1013.5
20260502185205 13 240 0.0 0.0 0.13 1.75 1.75 81 1013.6
20260502184705 13 240 0.0 0.0 0.10 1.73 1.73 81 1013.7
20260502184208 13 240 0.0 0.0 0.13 1.73 1.73 81 1013.7
20260502183205 13 240 0.0 0.0 0.13 1.70 1.70 81 1013.4
20260502182705 13 240 0.0 0.0 0.15 1.70 1.70 81 1013.5
20260502181705 13 240 0.0 0.0 0.15 1.68 1.68 82 1013.2
20260502181207 14 240 0.0 0.0 0.18 1.68 1.68 82 1013.4
20260502180705 14 240 0.0 0.0 0.18 1.65 1.65 82 1013.4
20260502180205 14 240 0.0 0.0 0.18 1.65 1.65 82 1013.5
20260502170205 18 125 1.6 8.0 0.25 1.45 1.45 81 1013.3
20260502164204 18 125 3.2 8.0 0.28 1.37 1.37 81 1012.9
20260502163705 18 125 3.2 8.0 0.25 1.35 1.35 81 1012.9
20260502163205 18 125 3.2 8.0 0.28 1.35 1.35 81 1013.1
20260502162705 18 125 3.2 8.0 0.25 1.30 1.30 81 1013.3
20260502161705 19 125 0.0 0.0 0.25 1.27 1.27 81 1013.4
20260502152205 20 251 0.0 1.6 0.33 1.02 1.02 77 1013.9
20260502151705 20 251 0.0 1.6 0.33 0.99 0.99 77 1014.0
20260502151205 20 251 0.0 0.0 0.33 0.97 0.97 76 1014.1
20260502150705 20 251 0.0 0.0 0.38 0.97 0.97 76 1014.2
20260502150205 20 251 0.0 0.0 0.36 0.91 0.91 76 1014.3
20260502130707 18 159 0.0 0.0 0.13 0.13 0.13 79 1015.8
20260502130205 18 160 0.0 9.7 0.10 0.10 0.10 79 1016.0
20260502123705 22 257 3.2 9.7 0.00 0.00 0.00 56 1015.9
20260502123205 23 259 1.6 6.4 0.00 0.00 0.00 54 1015.8
20260502122705 23 259 0.0 0.0 0.00 0.00 0.00 53 1015.8
20260502122206 23 259 0.0 0.0 0.00 0.00 0.00 53 1015.9
20260502121705 23 237 0.0 0.0 0.00 0.00 0.00 52 1016.0
20260502121205 23 244 0.0 0.0 0.00 0.00 0.00 54 1016.0
20260502120705 23 243 0.0 0.0 0.00 0.00 0.00 54 1016.1
20260502120205 23 239 0.0 8.0 0.00 0.00 0.00 53 1016.1
20260502115704 23 247 1.6 11.3 0.00 0.00 0.00 57 1016.1
20260502114706 23 246 3.2 16.1 0.00 0.00 0.00 55 1016.3
20260502114206 23 246 4.8 16.1 0.00 0.00 0.00 55 1016.3
20260502113705 23 257 3.2 14.5 0.00 0.00 0.00 56 1016.4
20260502113205 23 246 3.2 14.5 0.00 0.00 0.00 53 1016.4
20260502112705 23 246 4.8 14.5 0.00 0.00 0.00 53 1016.4
20260502111705 23 244 3.2 12.9 0.00 0.00 0.00 52 1016.6
20260502111205 23 245 1.6 11.3 0.00 0.00 0.00 52 1016.6
20260502110705 23 245 0.0 6.4 0.00 0.00 0.00 53 1016.6
20260502110205 23 246 0.0 8.0 0.00 0.00 0.00 53 1016.7
20260502105705 23 246 1.6 12.9 0.00 0.00 0.00 55 1016.7
20260502104706 22 245 3.2 11.3 0.00 0.00 0.00 55 1016.8
20260502104205 22 248 3.2 11.3 0.00 0.00 0.00 55 1016.9
20260502103705 22 248 3.2 14.5 0.00 0.00 0.00 54 1016.9
20260502102705 22 266 6.4 17.7 0.00 0.00 0.00 55 1017.1
20260502102205 22 256 4.8 17.7 0.00 0.00 0.00 56 1017.1
20260502101206 22 251 6.4 16.1 0.00 0.00 0.00 56 1017.2
20260502100706 22 242 4.8 16.1 0.00 0.00 0.00 55 1017.2
20260502100206 22 233 3.2 14.5 0.00 0.00 0.00 56 1017.3
20260502091224 21 236 3.2 17.7 0.00 0.00 0.00 56 1017.6
20260502090705 21 236 4.8 16.1 0.00 0.00 0.00 55 1017.5
20260502090222 21 233 1.6 16.1 0.00 0.00 0.00 55 1017.6
20260502071207 18 223 0.0 0.0 0.00 0.00 0.00 60 1017.8
20260502070705 18 223 0.0 0.0 0.00 0.00 0.00 60 1017.9
20260502070205 18 213 0.0 0.0 0.00 0.00 0.00 60 1018.0
20260502065205 17 217 0.0 0.0 0.00 0.00 0.00 60 1017.9
20260502064705 17 216 0.0 0.0 0.00 0.00 0.00 60 1018.0
20260502063705 17 182 0.0 0.0 0.00 0.00 0.00 58 1017.9
20260502063205 17 180 0.0 0.0 0.00 0.00 0.00 56 1017.9
20260502062705 17 180 0.0 0.0 0.00 0.00 0.00 55 1017.9
20260502062205 17 180 0.0 0.0 0.00 0.00 0.00 54 1017.9
20260502061710 17 180 0.0 0.0 0.00 0.00 0.00 53 1017.9
20260502061205 17 177 0.0 0.0 0.00 0.00 0.00 53 1017.9
20260502060706 17 176 0.0 0.0 0.00 0.00 0.00 52 1017.9
20260502060205 17 176 0.0 0.0 0.00 0.00 0.00 52 1017.8
20260502055708 17 176 0.0 0.0 0.00 0.00 0.00 51 1017.9
20260502055205 17 176 0.0 0.0 0.00 0.00 0.00 51 1017.9
20260502054705 17 176 0.0 0.0 0.00 0.00 0.00 51 1017.9
20260502054205 17 175 0.0 0.0 0.00 0.00 0.00 51 1017.8
20260502053705 16 175 0.0 0.0 0.00 0.00 0.00 51 1017.9
20260502053205 16 175 0.0 0.0 0.00 0.00 0.00 51 1017.9
20260502052705 16 174 0.0 0.0 0.00 0.00 0.00 51 1017.9
20260502051705 16 173 0.0 0.0 0.00 0.00 0.00 52 1017.8
20260502051205 15 173 0.0 0.0 0.00 0.00 0.00 52 1017.7
20260502050208 14 173 0.0 0.0 0.00 0.00 0.00 53 1017.7
20260502045206 13 173 0.0 0.0 0.00 0.00 0.00 54 1017.6
20260502044705 13 173 0.0 0.0 0.00 0.00 0.00 55 1017.6
20260502044205 13 173 0.0 0.0 0.00 0.00 0.00 55 1017.5
20260502043705 12 173 0.0 0.0 0.00 0.00 0.00 56 1017.6
20260502043208 12 173 0.0 0.0 0.00 0.00 0.00 56 1017.6
20260502042705 12 173 0.0 0.0 0.00 0.00 0.00 57 1017.7
20260502042205 12 173 0.0 0.0 0.00 0.00 0.00 58 1017.7
20260502041705 11 173 0.0 0.0 0.00 0.00 0.00 59 1017.7
20260502041205 11 173 0.0 0.0 0.00 0.00 0.00 61 1017.7
20260502040705 11 173 0.0 0.0 0.00 0.00 0.00 62 1017.8
20260502040205 11 173 0.0 0.0 0.00 0.00 0.00 62 1017.8
20260502035705 11 173 0.0 0.0 0.00 0.00 0.00 62 1017.8
20260502035205 11 173 0.0 0.0 0.00 0.00 0.00 63 1017.8
20260502034707 10 173 0.0 0.0 0.00 0.00 0.00 64 1017.8
20260502034206 10 173 0.0 0.0 0.00 0.00 0.00 65 1017.7
20260502033712 10 173 0.0 0.0 0.00 0.00 0.00 66 1017.7
20260502033205 10 173 0.0 0.0 0.00 0.00 0.00 66 1017.8
20260502032705 9 173 0.0 0.0 0.00 0.00 0.00 67 1017.9
20260502032205 9 173 0.0 0.0 0.00 0.00 0.00 67 1017.9
20260502031705 9 173 0.0 0.0 0.00 0.00 0.00 67 1017.9
20260502031205 9 173 0.0 0.0 0.00 0.00 0.00 67 1017.9
20260502030734 9 173 0.0 0.0 0.00 0.00 0.00 68 1017.9
20260502030228 9 173 0.0 0.0 0.00 0.00 0.00 68 1018.0
20260502025704 9 173 0.0 0.0 0.00 0.00 0.00 68 1018.0
20260502025206 9 173 0.0 0.0 0.00 0.00 0.00 68 1018.1
20260502024705 9 173 0.0 0.0 0.00 0.00 0.00 68 1018.1
20260502024206 9 173 0.0 0.0 0.00 0.00 0.00 68 1018.1
20260502023207 9 173 0.0 0.0 0.00 0.00 0.00 68 1018.3
20260502022705 9 173 0.0 0.0 0.00 0.00 0.00 68 1018.3
20260502022205 9 173 0.0 0.0 0.00 0.00 0.00 68 1018.3
20260502021705 9 173 0.0 0.0 0.00 0.00 0.00 67 1018.4
20260502021221 9 173 0.0 0.0 0.00 0.00 0.00 67 1018.4
20260502020730 9 173 0.0 0.0 0.00 0.00 0.00 67 1018.5
20260502020207 9 173 0.0 0.0 0.00 0.00 0.00 67 1018.6
20260502015705 9 173 0.0 0.0 0.00 0.00 0.00 66 1018.6
20260502015205 10 173 0.0 0.0 0.00 0.00 0.00 66 1018.7
20260502014706 10 173 0.0 0.0 0.00 0.00 0.00 65 1018.7
20260502014208 10 173 0.0 0.0 0.00 0.00 0.00 64 1018.7
20260502013705 10 173 0.0 0.0 0.00 0.00 0.00 63 1018.8
20260502012705 10 173 0.0 0.0 0.00 0.00 0.00 62 1018.9
20260502012206 10 173 0.0 0.0 0.00 0.00 0.00 60 1018.8
20260502011705 11 173 0.0 0.0 0.00 0.00 0.00 59 1018.8
20260502011205 11 173 0.0 0.0 0.00 0.00 0.00 58 1018.8
20260502010705 11 173 0.0 0.0 0.00 0.00 0.00 57 1018.9
20260502010205 11 173 0.0 0.0 0.00 0.00 0.00 57 1018.9
20260502005705 11 173 0.0 0.0 0.00 0.00 0.00 55 1018.9
20260502005205 11 173 0.0 0.0 0.00 0.00 0.00 54 1018.9
20260502004205 12 173 0.0 0.0 0.00 0.00 0.00 52 1018.9
20260502003705 12 173 0.0 0.0 0.00 0.00 0.00 51 1019.0
20260502003205 12 173 0.0 0.0 0.00 0.00 0.00 51 1019.0
20260502002706 13 173 0.0 0.0 0.00 0.00 0.00 50 1019.0
20260502002205 13 173 0.0 0.0 0.00 0.00 0.00 50 1019.1
20260502001206 13 173 0.0 0.0 0.00 0.00 0.00 49 1019.2
20260502000705 13 173 0.0 0.0 0.00 0.00 0.00 48 1019.3
20260502000205 13 173 0.0 0.0 0.00 0.00 0.00 47 1019.4
20260501235705 13 173 0.0 0.0 0.00 0.00 0.00 47 1019.5
20260501235205 13 173 0.0 0.0 0.00 0.00 0.00 47 1019.6
20260501234205 13 173 0.0 0.0 0.00 0.00 0.00 47 1019.7
20260501233705 14 173 0.0 0.0 0.00 0.00 0.00 46 1019.8
20260501233205 14 173 0.0 0.0 0.00 0.00 0.00 46 1019.8
20260501232706 14 173 0.0 0.0 0.00 0.00 0.00 46 1019.9
20260501232205 14 173 0.0 0.0 0.00 0.00 0.00 45 1019.9
20260501231705 14 173 0.0 0.0 0.00 0.00 0.00 45 1020.0
20260501231205 15 173 0.0 0.0 0.00 0.00 0.00 44 1020.0
20260501230705 15 173 0.0 0.0 0.00 0.00 0.00 44 1020.0
20260501230230 15 173 0.0 0.0 0.00 0.00 0.00 45 1020.1
20260501225205 14 173 0.0 0.0 0.00 0.00 0.00 45 1020.1
20260501224706 14 173 0.0 0.0 0.00 0.00 0.00 45 1020.2
20260501224207 14 173 0.0 0.0 0.00 0.00 0.00 46 1020.2
20260501223705 14 173 0.0 0.0 0.00 0.00 0.00 46 1020.1
20260501223205 14 173 0.0 0.0 0.00 0.00 0.00 47 1020.1
20260501222705 14 173 0.0 0.0 0.00 0.00 0.00 47 1020.2
20260501222206 14 173 0.0 0.0 0.00 0.00 0.00 46 1020.2
20260501220205 15 173 0.0 0.0 0.00 0.00 0.00 45 1020.2
20260501215206 15 173 0.0 0.0 0.00 0.00 0.00 44 1020.2